EW1392 Weather Reports


Display with metric or nautical units.
time (UTC)temp
F
wind
direction
speed
MPH
gust
MPH
rain 1hr
in
rain 24hr
in
rain mn
in
humidity
%
barometer
mb
20260831084600 46 300 0.0 0.0 0.00 0.00 0.00 89 1015.5
20260831083053 46 300 0.0 0.0 0.00 0.00 0.00 88 1015.4
20260831081553 47 300 0.0 0.0 0.00 0.00 0.00 87 1015.2
20260831080049 47 300 0.0 0.0 0.00 0.00 0.00 87 1015.3
20260831074547 48 300 0.0 0.0 0.00 0.00 0.00 86 1015.3
20260831073046 48 300 0.0 0.0 0.00 0.00 0.00 85 1015.4
20260831071545 49 300 0.0 0.0 0.00 0.00 0.00 83 1015.6
20260831070049 50 300 0.0 0.0 0.00 0.00 0.00 83 1015.6
20260831064540 50 300 0.0 0.0 0.00 0.00 0.00 82 1015.6
20260831063042 51 300 0.0 0.0 0.00 0.00 0.00 80 1015.6
20260831061539 52 300 0.0 0.0 0.00 0.00 0.00 79 1015.7
20260831060038 53 300 0.0 0.0 0.00 0.00 0.00 78 1015.8
20260831054542 54 300 0.0 0.0 0.00 0.00 0.00 76 1015.9
20260831053044 55 300 0.0 0.0 0.00 0.00 0.00 75 1016.0
20260831051542 56 300 0.0 0.0 0.00 0.00 0.00 74 1016.0
20260831050043 57 300 0.0 1.0 0.00 0.00 0.00 73 1016.0
20260831044538 57 292 0.0 1.0 0.00 0.00 0.00 72 1015.9
20260831043041 58 115 0.0 1.0 0.00 0.00 0.00 70 1016.0
20260831041538 58 103 0.0 0.0 0.00 0.00 0.00 70 1016.0
20260831040036 59 132 0.0 3.0 0.00 0.00 0.00 68 1016.0
20260831034534 60 327 0.0 2.0 0.00 0.00 0.00 67 1015.9
20260831033056 60 261 0.0 2.0 0.00 0.00 0.00 66 1015.7
20260831031534 61 237 0.0 4.0 0.00 0.00 0.00 65 1015.5
20260831030033 61 225 0.0 3.0 0.00 0.00 0.00 64 1015.4
20260831024533 62 292 0.0 4.0 0.00 0.00 0.00 63 1015.4
20260831023032 62 196 0.0 1.0 0.00 0.00 0.00 62 1015.2
20260831021532 63 197 0.0 2.0 0.00 0.00 0.00 62 1015.4
20260831020031 63 202 0.0 4.0 0.00 0.00 0.00 61 1015.3
20260831014531 64 280 0.0 4.0 0.00 0.00 0.00 60 1015.2
20260831013031 65 150 0.0 4.0 0.00 0.00 0.00 59 1015.1
20260831011541 65 315 0.0 6.0 0.00 0.00 0.00 58 1015.1
20260831010029 66 183 0.0 4.0 0.00 0.00 0.00 58 1015.2
20260831004530 67 283 0.0 7.0 0.00 0.00 0.00 56 1015.0
20260831003035 68 333 0.0 3.0 0.00 0.00 0.00 55 1014.9
20260831001529 68 224 0.0 4.0 0.00 0.00 0.00 52 1014.8
20260831000035 68 285 0.0 5.0 0.00 0.00 0.00 53 1014.7
20260830234536 69 167 0.0 4.0 0.00 0.00 0.00 52 1014.7
20260830233026 69 184 0.0 3.0 0.00 0.00 0.00 53 1014.8
20260830231525 69 213 0.0 8.0 0.00 0.00 0.00 52 1014.9
20260830230024 69 159 0.0 2.0 0.00 0.00 0.00 51 1014.9
20260830224524 69 188 0.0 3.0 0.00 0.00 0.00 51 1014.9
20260830223023 69 108 0.0 5.0 0.00 0.00 0.00 52 1015.2
20260830221534 69 234 1.0 8.0 0.00 0.00 0.00 51 1015.4
20260830220020 69 229 0.0 5.0 0.00 0.00 0.00 51 1015.6
20260830214518 68 175 1.0 6.0 0.00 0.00 0.00 51 1015.7
20260830213017 68 172 0.0 3.0 0.00 0.00 0.00 50 1015.7
20260830211516 68 241 1.0 7.0 0.00 0.00 0.00 49 1015.9
20260830210014 68 168 0.0 4.0 0.00 0.00 0.00 49 1016.0
20260830204513 68 255 1.0 6.0 0.00 0.00 0.00 49 1016.0
20260830203013 68 208 1.0 7.0 0.00 0.00 0.00 49 1016.1
20260830201513 68 223 0.0 3.0 0.00 0.00 0.00 50 1016.0
20260830200009 67 196 0.0 2.0 0.00 0.00 0.00 52 1016.0
20260830194507 67 205 0.0 3.0 0.00 0.00 0.00 50 1016.1
20260830193005 66 205 0.0 2.0 0.00 0.00 0.00 52 1016.3
20260830191505 64 244 0.0 3.0 0.00 0.00 0.00 56 1016.5
20260830190117 64 224 0.0 5.0 0.00 0.00 0.00 54 1016.6
20260830184610 64 140 0.0 2.0 0.00 0.00 0.00 53 1016.7
20260830183059 64 194 0.0 5.0 0.00 0.00 0.00 56 1016.8
20260830181557 63 111 0.0 4.0 0.00 0.00 0.00 56 1017.0
20260830180100 62 194 0.0 4.0 0.00 0.00 0.00 58 1016.9
20260830174602 62 192 0.0 6.0 0.00 0.00 0.00 61 1017.0
20260830173100 60 5 0.0 1.0 0.00 0.00 0.00 63 1016.9
20260830171551 57 20 0.0 0.0 0.00 0.00 0.00 73 1016.9
20260830170044 54 13 0.0 4.0 0.00 0.00 0.00 74 1016.8
20260830164534 51 155 0.0 0.0 0.00 0.00 0.00 87 1017.0
20260830163033 48 155 0.0 0.0 0.00 0.00 0.00 94 1017.2
20260830161525 46 155 0.0 0.0 0.00 0.00 0.00 93 1017.2
20260830160026 44 155 0.0 0.0 0.00 0.00 0.00 95 1017.2
20260830154520 43 155 0.0 0.0 0.00 0.00 0.00 95 1017.4
20260830153024 41 155 0.0 0.0 0.00 0.00 0.00 95 1017.4
20260830151518 40 155 0.0 0.0 0.00 0.00 0.00 95 1017.4
20260830150019 39 155 0.0 0.0 0.00 0.00 0.00 96 1017.3
20260830144517 38 155 0.0 0.0 0.00 0.00 0.00 95 1017.5
20260830143016 38 155 0.0 0.0 0.00 0.00 0.00 95 1017.4
20260830141514 37 155 0.0 0.0 0.00 0.00 0.00 94 1017.3
20260830140023 37 155 0.0 0.0 0.00 0.00 0.00 94 1017.1
20260830134512 37 155 0.0 0.0 0.00 0.00 0.00 94 1017.0
20260830133023 37 155 0.0 0.0 0.00 0.00 0.00 94 1016.9
20260830131510 37 155 0.0 0.0 0.00 0.00 0.00 93 1017.0
20260830130008 38 155 0.0 0.0 0.00 0.00 0.00 93 1017.0
20260830124507 38 155 0.0 0.0 0.00 0.00 0.00 93 1016.8
20260830123007 38 155 0.0 0.0 0.00 0.00 0.00 93 1016.8
20260830121506 38 155 0.0 0.0 0.00 0.00 0.00 93 1016.7
20260830120006 38 155 0.0 0.0 0.00 0.00 0.00 92 1016.8
20260830114503 38 155 0.0 0.0 0.00 0.00 0.00 91 1016.7
20260830113003 38 155 0.0 0.0 0.00 0.00 0.00 92 1016.6
20260830111600 39 155 0.0 0.0 0.00 0.00 0.00 92 1016.7
20260830104557 39 155 0.0 0.0 0.00 0.00 0.00 91 1016.5
20260830103056 39 155 0.0 0.0 0.00 0.00 0.00 91 1016.4
20260830101556 40 155 0.0 0.0 0.00 0.00 0.00 91 1016.4
20260830100053 40 155 0.0 0.0 0.00 0.00 0.00 91 1016.4
20260830094551 40 155 0.0 0.0 0.00 0.00 0.00 90 1016.4
20260830093050 40 155 0.0 0.0 0.00 0.00 0.00 90 1016.4
20260830091548 41 155 0.0 0.0 0.00 0.00 0.00 90 1016.4
20260830090047 41 155 0.0 0.0 0.00 0.00 0.00 89 1016.4